[Iaude] MPEC X244: 2023 XX10 [a=2.77,e=0.73,i=14.1,H=21.0]

mpec at marsden.cfa.harvard.edu mpec at marsden.cfa.harvard.edu
Tue Dec 12 07:57:17 EST 2023


M.P.E.C. 2023-X244                            Issued 2023 December 12, 12:55 UT

     The Minor Planet Electronic Circulars contain information on unusual
         minor planets, routine data on comets and natural satellites,
         and occasional editorial announcements.  They are published
    on behalf of Division F of the International Astronomical Union by the
          Minor Planet Center, Smithsonian Astrophysical Observatory,
                          Cambridge, MA 02138, U.S.A.
			  
             Prepared using the Tamkin Foundation Computer Network

                              MPC at CFA.HARVARD.EDU
            URL https://www.minorplanetcenter.net/    ISSN 1523-6714

                                   2023 XX10                                    


Observations:
     K23X10X KB2023 12 08.96171 03 45 59.770-42 39 44.96         18.5 GXEX244L87
     K23X10X KB2023 12 08.96843 03 46 04.238-42 38 29.33         18.7 GXEX244L87
     K23X10X KB2023 12 08.97514 03 46 08.513-42 37 17.90         18.9 GXEX244L87
     K23X10X* C2023 12 09.11829403 47 46.133-42 11 42.97         18.61oVEX244W68
     K23X10X  C2023 12 09.12115303 47 47.875-42 11 13.60         18.63oVEX244W68
     K23X10X  C2023 12 09.12529403 47 50.400-42 10 30.22         18.66oVEX244W68
     K23X10X  C2023 12 09.24726403 49 04.846-41 48 54.47         18.39oVEX244W68
     K23X10X  C2023 12 09.24771403 49 05.093-41 48 49.79         18.82oVEX244W68
     K23X10X  C2023 12 09.24816403 49 05.390-41 48 44.75         18.20oVEX244W68
     K23X10X  C2023 12 09.24906403 49 05.983-41 48 37.40         18.40oVEX244W68
     K23X10X |C2023 12 10.15408003 57 48.960-39 17 39.10         19.4 VuEX244807
     K23X10X |C2023 12 10.15819003 57 51.010-39 16 59.80         19.4 VuEX244807
     K23X10X |C2023 12 10.16230003 57 52.990-39 16 20.90         19.3 VuEX244807
     K23X10X  C2023 12 10.96417 04 04 19.77 -37 13 44.5          19.0 GVEX244M28
     K23X10X  C2023 12 10.96621 04 04 20.62 -37 13 26.5          19.2 GVEX244M28
     K23X10X  C2023 12 10.96823 04 04 21.46 -37 13 09.0          19.1 GVEX244M28
     K23X10X KC2023 12 11.46407 04 07 55.54 -36 02 21.6          18.9 RqEX244E94
     K23X10X KC2023 12 11.47436 04 07 59.56 -36 00 55.2          19.0 RqEX244E94
     K23X10X KC2023 12 11.48462 04 08 03.28 -35 59 31.1          18.9 RqEX244E94
     K23X10X KC2023 12 11.49488 04 08 07.41 -35 58 05.0          19.0 RqEX244E94
     K23X10X  C2023 12 11.78189 04 10 04.68 -35 18 49.6          19.0 GVEX244M28
     K23X10X  C2023 12 11.78391 04 10 05.44 -35 18 33.7          18.9 GVEX244M28
     K23X10X  C2023 12 11.78591 04 10 06.18 -35 18 17.7          19.1 GVEX244M28
     K23X10X  C2023 12 12.11982704 12 10.128-34 34 16.79         18.84oVEX244W68
     K23X10X  C2023 12 12.12414504 12 11.669-34 33 43.13         19.22oVEX244W68
     K23X10X  C2023 12 12.12827304 12 13.030-34 33 10.84         19.38oVEX244W68

Observer details:
807 Cerro Tololo Observatory, La Serena.  Observers T. Linder, R. Holmes, L.
    Horn.  0.61-m f/11 Ritchey-Chretien + CCD.
E94 Possum Observatory, Gisborne.  Observer J. Drummond.  0.41-m f/4.5
    Newtonian + CCD.
L87 Moonbase South Observatory, Hakos.  Observer G. Duszanowicz.  0.36-m f/7.3
    reflector + CMO.
M28 Lesedi Telescope-SAAO Observatory, Sutherland.  Observers N. Erasmus, S.
    Potter, C. van Gend, S. Chandra, H. Worters.  Measurers T. Ngwane, N.
    Erasmus.  1.0-m f/8 Reflector + CCD.
W68 ATLAS Chile, Rio Hurtado.  Observers L. Denneau, R. Siverd, J. Tonry, H.
    Weiland.  Measurers L. Denneau, N. Erasmus, A. Fitzsimmons, A. Lawrence,
    J. Robinson, R. Siverd, J. Tonry, H. Weiland.  0.5-m Reflector + CCD.

Orbital elements:
2023 XX10                                                Earth MOID = 0.0755 AU
Epoch 2023 Sept. 13.0 TT = JDT 2460200.5                Veres                   
M 350.94413              (2000.0)            P               Q                  
n   0.21358639     Peri.  136.93091     +0.98128989     -0.06684451             
a   2.7717475      Node   227.83904     +0.02279419     +0.97153678             
e   0.7276442      Incl.   14.09821     +0.19118206     +0.22726217             
P   4.61           H   21.04          G   0.15           U   9                  
Residuals in seconds of arc
231208 L87  0.6-  0.6-    231209 W68 (0.6+  2.1-)   231211 E94 (2.5-  1.5-)
231208 L87  1.3+  1.9+    231210 807  0.2-  0.2+    231211 E94  0.3-  1.1-
231208 L87  1.1+  0.2+    231210 807  0.1+  0.2+    231211 M28  1.0-  1.5+
231209 W68  0.2+  0.2+    231210 807  0.5-  0.3-    231211 M28  0.8-  1.4+
231209 W68  0.0   0.7-    231210 M28  0.1-  2.0+    231211 M28  0.7-  1.4+
231209 W68  0.3-  1.2-    231210 M28  0.2-  1.9+    231212 W68  0.0   1.0-
231209 W68  0.1+  0.0     231210 M28  0.5-  1.5+    231212 W68  0.8+  0.9-
231209 W68  0.2-  0.1-    231211 E94  0.2-  0.3-    231212 W68  0.2+  0.7-
231209 W68  0.1+  0.1+    231211 E94  0.4+  0.2+

Ephemeris:
2023 XX10                a,e,i = 2.77, 0.73, 14                  q = 0.7549
Date    TT    R. A. (2000) Decl.     Delta      r    Elong.  Phase     V
2023 11 12    17 47 26.5 -15 32 26   0.2493  0.8104    38.6   130.3    23.3
...
2023 11 27    19 43 40.5 -50 43 25   0.1029  0.9259    51.2   123.8    21.1
...
2023 12 05    02 29 43.0 -56 32 59   0.1038  1.0024    96.3    77.8    18.8
...
2023 12 11    04 04 37.2 -37 08 37   0.1501  1.0636   118.0    54.8    19.1
2023 12 12    04 11 24.9 -34 49 59   0.1596  1.0741   120.3    52.3    19.1
2023 12 13    04 17 08.9 -32 44 48   0.1694  1.0846   122.3    50.1    19.2
...
2023 12 19    04 38 50.1 -23 36 35   0.2328  1.1485   130.4    40.8    19.8
...
2023 12 27    04 53 22.1 -16 22 08   0.3258  1.2354   135.0    34.3    20.5
...
2024 01 11    05 09 16.9 -08 24 29   0.5205  1.3996   134.7    29.9    21.7

M. P. C. Staff               (C) Copyright 2023 MPC           M.P.E.C. 2023-X244





More information about the Iaude mailing list